Wind_Speed
34 35 36 36 37 38 38 39 40 41 41 42 43 43 44 45 45 45 44 44 44 45 46 46 46 46 46 45 45 44 44 44 43 43 42 42 42 41 40 40 39 38 37
35 36 37 37 38 39 40 41 41 42 43 44 45 45 46 46 47 47 47 47 48 48 48 48 48 49 49 49 48 47 46 46 45 45 45 44 43 43 42 42 41 40 40
36 37 38 39 40 41 42 43 43 44 45 46 47 47 48 48 49 50 50 51 51 51 51 51 51 51 51 51 50 49 49 48 48 47 46 46 45 45 44 44 43 43 42
38 39 40 41 42 43 44 44 45 46 47 47 48 49 50 51 51 52 53 53 54 54 54 55 55 54 54 54 54 53 52 51 51 50 49 49 48 47 46 46 46 45 45
39 40 41 42 43 44 45 46 47 48 49 50 51 51 52 53 54 55 55 56 57 57 58 57 57 57 57 57 56 56 55 54 53 53 52 51 50 50 48 48 47 47 46
41 41 42 43 44 45 46 47 48 50 52 53 54 54 55 56 57 57 58 59 59 60 61 61 61 61 61 60 60 59 58 57 56 55 55 53 52 51 50 49 49 49 48
42 43 44 45 46 47 48 50 51 52 53 54 56 56 57 58 59 60 61 61 61 62 63 64 64 63 63 63 63 62 61 60 59 57 57 55 54 53 53 51 51 50 50
43 45 45 46 47 49 50 51 52 53 54 56 58 59 59 60 60 61 62 62 63 63 64 64 65 65 64 64 64 63 63 62 60 59 58 57 57 55 55 54 54 53 51
45 46 47 48 48 50 51 52 53 54 55 56 57 59 60 61 61 60 60 61 61 62 63 64 65 66 66 65 64 64 64 63 62 61 61 59 59 57 56 56 56 55 54
46 47 48 49 50 51 52 53 54 55 56 57 58 59 60 61 62 60 58 58 59 59 60 61 62 63 64 65 64 64 64 64 63 63 63 60 60 59 59 58 56 55 54
47 48 49 50 51 52 52 53 54 55 56 57 57 58 59 59 60 60 58 56 56 56 56 57 59 61 63 64 65 65 65 65 65 65 65 63 62 61 60 59 57 57 56
48 49 50 51 51 52 53 53 54 55 56 56 56 56 57 57 58 59 58 56 55 55 56 57 57 58 61 63 64 65 65 65 66 67 66 64 63 62 61 61 59 58 57
49 49 50 51 52 53 53 53 54 54 54 55 56 56 56 57 57 57 57 56 56 56 56 56 56 58 59 61 62 63 64 65 64 65 65 64 63 62 62 62 60 59 57
49 49 50 51 52 53 53 54 54 54 55 55 56 56 56 56 57 57 57 57 58 56 55 54 56 57 58 59 60 61 61 62 62 62 63 63 63 61 61 60 60 58 56
50 50 51 52 53 54 55 55 55 56 56 56 56 56 57 57 57 57 58 58 59 58 55 54 54 55 57 58 58 58 58 59 58 59 60 60 61 60 59 58 58 57 55
50 51 52 53 54 55 56 57 57 57 57 57 56 57 57 57 58 58 57 57 58 57 55 53 54 54 54 55 55 56 56 56 56 56 56 58 58 58 58 57 57 57 55
51 52 53 54 55 56 57 58 58 57 57 56 57 57 57 57 57 57 56 56 56 55 55 53 53 52 52 52 52 53 53 52 52 52 52 54 55 56 56 55 55 54 53
52 52 53 54 55 56 57 58 57 56 56 56 57 57 57 57 56 55 55 54 53 53 54 52 50 48 48 48 49 49 49 50 50 49 48 49 51 52 52 53 52 51 51
52 53 54 54 55 56 57 57 56 56 56 56 56 56 55 55 54 53 52 51 50 50 50 49 46 44 44 44 44 45 46 46 46 46 46 46 46 48 49 49 50 49 49
53 53 54 55 56 56 56 55 55 56 55 55 54 54 53 52 50 49 48 47 47 47 46 44 41 39 39 39 41 42 43 43 43 44 45 44 44 45 46 46 45 46 46
53 53 54 55 55 56 55 55 55 55 54 53 53 52 50 48 47 46 45 44 44 42 41 39 37 36 35 35 37 38 38 40 41 41 41 41 41 41 42 42 42 42 42
52 53 54 54 54 54 54 54 53 52 52 51 50 49 47 46 45 43 42 41 40 39 37 36 35 35 33 32 32 33 34 35 36 36 37 37 37 37 37 37 37 37 37
51 52 53 53 53 52 52 51 50 50 49 48 48 46 43 42 41 40 38 37 36 36 35 35 33 32 31 30 29 29 30 31 32 33 33 32 32 32 33 33 34 34 34
51 51 51 51 51 49 49 47 46 46 46 45 43 40 38 37 38 37 34 33 33 32 32 32 30 29 28 28 27 26 27 28 29 28 29 29 29 28 28 29 30 31 32
49 49 49 48 47 45 45 44 44 43 42 40 37 36 36 36 34 33 32 30 29 28 28 27 27 27 26 26 26 25 24 23 24 24 25 25 26 26 25 26 27 29 30
48 48 46 45 44 42 42 42 42 41 39 37 35 34 34 32 31 31 29 28 26 25 24 22 23 23 23 23 23 22 21 21 21 22 22 23 23 24 23 24 25 26 28
Wind_Direction
274 276 277 277 278 277 277 277 276 276 276 275 274 274 274 273 273 272 271 270 269 269 268 266 266 265 264 265 265 265 265 266 266 267 267 267 268 269 270 271 272 272 273
275 276 278 278 278 278 278 278 278 277 277 277 276 276 275 274 273 272 271 270 269 269 268 266 266 265 265 264 264 265 265 265 265 266 267 267 268 268 269 270 271 271 272
276 277 279 279 279 279 279 279 279 279 278 277 276 276 276 275 275 273 272 271 270 269 268 267 266 265 265 265 264 264 265 265 264 265 266 266 267 267 268 268 270 270 271
277 278 279 280 280 280 280 280 280 279 278 277 277 276 276 276 275 274 273 271 270 269 268 267 266 265 265 264 264 264 264 265 265 264 264 265 266 267 268 268 269 270 270
278 279 280 280 281 281 281 281 281 280 279 278 278 277 277 276 276 275 274 272 271 269 268 267 266 265 265 264 264 264 263 264 264 264 264 264 265 265 266 267 268 269 270
280 281 282 282 282 282 282 282 282 282 281 280 280 279 278 278 277 276 275 273 272 271 269 267 266 265 264 263 263 263 262 263 263 263 263 263 263 263 264 266 267 267 269
282 282 283 283 284 284 284 283 283 283 283 283 282 281 280 279 278 278 276 274 273 272 270 268 267 265 263 262 262 261 261 262 261 262 262 262 262 262 264 265 265 267 268
283 284 284 285 285 285 285 285 285 285 285 285 284 283 281 279 279 278 277 276 274 273 270 268 267 266 264 262 261 261 260 261 261 261 261 261 262 262 263 264 264 266 267
284 285 285 286 287 287 287 286 286 287 287 286 286 285 284 282 280 279 277 276 275 273 271 269 267 265 264 262 261 260 260 260 259 260 260 260 260 261 262 263 263 264 265
285 286 287 287 288 288 288 288 288 288 288 288 287 287 286 286 284 280 277 276 276 274 272 270 268 266 264 262 261 260 259 259 259 259 259 259 259 260 261 262 261 262 263
286 287 288 288 289 290 290 290 290 291 290 290 289 288 288 287 286 283 279 277 276 275 274 272 270 267 265 263 261 260 258 259 258 257 259 259 259 259 260 261 261 261 263
287 288 289 289 290 291 291 291 292 292 292 291 291 290 290 288 287 284 281 277 275 275 274 273 271 269 267 264 263 261 259 259 258 257 258 258 258 259 260 260 261 261 262
288 289 290 290 291 292 292 293 293 293 292 292 292 292 291 289 288 285 282 279 277 276 274 273 273 271 268 266 264 262 260 258 258 257 257 257 256 257 258 259 260 260 260
289 289 289 290 291 292 293 293 294 294 294 293 293 292 292 290 288 286 283 281 279 277 275 274 273 272 269 267 265 263 260 259 258 257 256 256 256 257 257 257 258 258 258
289 289 289 290 291 292 292 293 293 294 294 294 294 293 292 291 289 286 285 283 281 279 276 274 273 272 269 266 265 263 261 259 258 257 256 256 256 255 255 256 256 256 256
289 289 290 290 291 292 292 293 293 294 294 293 293 293 292 291 289 287 285 284 283 281 278 276 274 272 269 266 264 263 261 260 258 257 256 255 255 254 254 254 254 254 255
289 290 290 291 292 293 293 294 294 294 294 293 293 293 292 291 290 288 285 284 283 281 279 279 276 272 270 267 264 263 261 260 258 257 256 255 253 253 253 252 254 254 255
289 290 291 292 293 293 294 294 294 293 293 293 293 293 292 291 290 288 286 285 283 281 280 280 276 272 269 266 263 261 261 260 258 255 255 254 252 252 252 251 252 253 254
289 290 291 292 293 294 294 294 294 294 293 293 293 293 293 292 291 289 287 284 282 279 280 280 275 271 268 266 263 261 261 259 257 253 252 253 253 252 251 252 252 252 252
289 290 291 292 293 294 294 294 294 294 294 294 294 294 293 292 291 288 286 283 281 279 279 278 275 271 269 266 263 261 259 258 255 252 251 251 252 251 250 250 251 251 251
289 290 292 293 294 294 294 294 294 295 296 295 294 294 293 292 290 289 286 284 282 280 279 276 273 271 270 267 264 262 259 256 255 253 251 250 250 249 250 249 249 249 249
290 291 293 294 294 294 294 294 295 297 297 296 295 294 292 291 290 289 287 285 283 281 278 274 272 271 269 267 264 261 258 255 253 250 248 247 248 247 247 247 248 246 247
290 292 293 294 294 295 295 295 296 297 298 298 296 294 292 292 290 289 286 284 281 278 277 273 270 267 267 266 264 263 258 255 250 247 244 244 246 244 242 242 244 244 244
291 293 294 295 295 295 296 296 297 299 299 298 296 295 294 293 293 290 287 283 279 278 276 273 268 265 264 262 262 260 255 252 248 246 242 242 241 242 239 239 240 241 243
292 294 295 295 295 295 296 296 298 300 299 298 297 297 295 294 293 290 286 283 280 277 275 270 264 263 260 258 256 255 253 250 244 241 238 238 237 237 238 238 238 241 244
292 294 294 294 295 295 296 297 298 298 298 297 297 298 297 295 292 289 284 283 281 276 272 266 262 259 258 256 252 252 249 245 239 232 233 234 234 234 233 235 238 243 246
Height
5795 5794 5793 5792 5791 5790 5788 5787 5786 5785 5784 5783 5782 5781 5781 5780 5779 5778 5779 5778 5778 5777 5777 5777 5777 5777 5777 5778 5778 5778 5778 5778 5778 5778 5778 5778 5778 5778 5778 5777 5777 5777 5776
5788 5787 5785 5784 5782 5781 5779 5778 5777 5775 5774 5773 5772 5771 5770 5769 5768 5768 5767 5767 5767 5767 5766 5766 5766 5766 5766 5767 5767 5767 5768 5768 5768 5769 5769 5769 5769 5769 5769 5769 5768 5768 5768
5779 5778 5777 5775 5774 5772 5770 5768 5767 5765 5764 5763 5762 5760 5759 5758 5757 5756 5755 5755 5755 5755 5755 5754 5754 5754 5755 5755 5755 5756 5757 5757 5758 5758 5758 5759 5759 5759 5759 5759 5759 5759 5759
5771 5769 5768 5766 5764 5762 5760 5758 5756 5754 5752 5751 5750 5748 5747 5746 5744 5743 5742 5742 5741 5741 5741 5741 5741 5742 5742 5743 5743 5744 5745 5745 5746 5747 5748 5748 5748 5749 5749 5749 5749 5749 5749
5762 5760 5758 5756 5754 5752 5749 5747 5745 5742 5740 5738 5737 5736 5734 5733 5731 5730 5729 5727 5727 5726 5727 5727 5727 5727 5728 5729 5730 5731 5732 5733 5734 5735 5736 5736 5737 5737 5738 5738 5739 5739 5739
5752 5750 5748 5746 5743 5741 5738 5735 5732 5730 5727 5725 5723 5722 5720 5718 5716 5715 5713 5712 5711 5711 5710 5711 5712 5712 5713 5714 5716 5717 5718 5719 5720 5721 5723 5724 5724 5725 5726 5727 5727 5728 5728
5742 5740 5737 5735 5732 5729 5726 5723 5720 5717 5714 5711 5709 5707 5706 5703 5701 5699 5697 5695 5694 5693 5693 5693 5694 5695 5697 5698 5700 5702 5703 5705 5706 5708 5709 5710 5711 5712 5713 5714 5715 5716 5716
5731 5729 5726 5723 5720 5717 5714 5710 5706 5703 5700 5696 5693 5690 5690 5689 5685 5683 5680 5678 5676 5675 5675 5675 5675 5677 5679 5681 5684 5686 5688 5690 5691 5693 5694 5696 5697 5699 5700 5701 5702 5703 5704
5720 5717 5714 5711 5707 5704 5701 5697 5693 5689 5686 5682 5677 5673 5671 5670 5669 5668 5664 5661 5659 5657 5656 5656 5656 5658 5660 5663 5666 5669 5671 5673 5675 5677 5679 5681 5683 5684 5686 5687 5689 5690 5690
5709 5706 5702 5699 5695 5691 5687 5684 5679 5675 5671 5667 5663 5658 5654 5651 5648 5649 5649 5645 5642 5640 5639 5638 5638 5639 5641 5644 5647 5650 5653 5656 5658 5660 5662 5665 5667 5669 5671 5673 5674 5675 5677
5697 5694 5690 5686 5682 5678 5674 5670 5666 5661 5656 5652 5648 5644 5639 5635 5631 5628 5630 5629 5627 5624 5623 5622 5622 5622 5623 5625 5628 5632 5635 5637 5640 5643 5646 5648 5651 5653 5656 5658 5659 5661 5662
5686 5682 5678 5674 5670 5666 5661 5657 5652 5647 5642 5638 5633 5629 5624 5620 5616 5612 5611 5612 5611 5610 5608 5606 5605 5605 5605 5607 5609 5612 5615 5618 5621 5625 5628 5631 5634 5636 5639 5641 5643 5645 5647
5674 5670 5665 5661 5657 5653 5648 5644 5639 5634 5629 5624 5619 5614 5610 5605 5601 5597 5595 5595 5595 5595 5593 5591 5589 5589 5588 5589 5590 5592 5596 5599 5602 5606 5609 5613 5616 5619 5622 5625 5627 5629 5631
5661 5657 5653 5649 5644 5640 5635 5630 5625 5620 5615 5610 5605 5600 5595 5591 5587 5583 5580 5578 5577 5578 5578 5577 5574 5572 5571 5571 5572 5574 5577 5580 5583 5587 5590 5594 5598 5602 5605 5608 5611 5614 5616
5648 5644 5640 5636 5631 5626 5622 5617 5612 5607 5601 5596 5591 5586 5581 5576 5572 5568 5564 5561 5559 5558 5561 5561 5558 5556 5554 5554 5555 5556 5560 5563 5566 5569 5572 5576 5580 5584 5588 5592 5595 5598 5601
5635 5631 5627 5622 5618 5613 5608 5603 5598 5592 5587 5582 5576 5572 5566 5561 5557 5553 5549 5545 5541 5539 5541 5544 5542 5539 5537 5538 5539 5540 5543 5546 5549 5552 5555 5559 5564 5568 5572 5576 5580 5583 5586
5623 5618 5614 5609 5604 5599 5594 5588 5583 5578 5573 5567 5562 5557 5552 5546 5541 5537 5533 5530 5527 5523 5522 5526 5525 5523 5522 5523 5524 5525 5527 5530 5534 5537 5541 5544 5548 5553 5557 5561 5564 5568 5571
5610 5605 5601 5596 5591 5585 5580 5574 5569 5563 5558 5553 5547 5542 5537 5531 5527 5522 5518 5515 5512 5509 5507 5507 5509 5508 5508 5508 5509 5511 5513 5516 5519 5524 5527 5530 5534 5538 5542 5546 5550 5554 5557
5598 5593 5588 5583 5578 5572 5566 5560 5554 5549 5544 5539 5533 5527 5522 5517 5512 5508 5504 5501 5498 5496 5493 5492 5493 5493 5494 5495 5496 5499 5501 5503 5506 5509 5513 5517 5520 5525 5529 5533 5537 5541 5545
5585 5580 5575 5570 5564 5558 5552 5546 5540 5535 5530 5524 5519 5513 5508 5503 5498 5494 5491 5488 5486 5484 5481 5480 5480 5481 5482 5482 5484 5486 5489 5491 5494 5497 5501 5505 5508 5512 5516 5520 5525 5529 5532
5572 5567 5562 5556 5550 5544 5538 5532 5527 5521 5516 5510 5505 5500 5495 5490 5486 5482 5479 5477 5474 5472 5471 5470 5470 5470 5471 5472 5473 5475 5477 5480 5483 5486 5490 5494 5497 5501 5505 5509 5513 5517 5521
5559 5554 5548 5542 5537 5531 5524 5518 5513 5508 5502 5497 5492 5487 5483 5478 5474 5471 5468 5466 5464 5462 5461 5460 5460 5461 5462 5462 5463 5465 5467 5470 5474 5477 5479 5484 5487 5491 5495 5499 5503 5507 5511
5546 5541 5535 5529 5524 5518 5512 5506 5500 5495 5490 5484 5479 5475 5471 5467 5463 5460 5458 5456 5455 5453 5452 5451 5451 5453 5453 5454 5454 5456 5458 5461 5464 5467 5471 5475 5478 5482 5486 5490 5495 5498 5502
5533 5528 5522 5517 5512 5506 5500 5495 5489 5484 5479 5474 5469 5464 5460 5457 5454 5450 5449 5448 5446 5445 5443 5442 5443 5445 5445 5445 5446 5448 5450 5453 5456 5459 5462 5467 5470 5474 5479 5483 5487 5491 5495
5521 5515 5510 5505 5499 5495 5489 5484 5479 5475 5470 5465 5460 5456 5452 5449 5446 5442 5440 5439 5438 5437 5436 5435 5435 5436 5437 5438 5439 5441 5443 5446 5449 5452 5456 5460 5464 5468 5473 5477 5481 5485 5488
5509 5504 5499 5493 5488 5484 5480 5475 5469 5465 5461 5457 5452 5448 5444 5440 5437 5434 5432 5431 5430 5430 5429 5428 5429 5430 5431 5432 5433 5434 5437 5440 5443 5448 5452 5455 5460 5464 5468 5472 5475 5478 5482